Location: Unspecified
(0.0000°N, 0.0000°E)
Time: 20:36:02
(UTC+00:00)

ATLAS 5 CENTAUR DEB - Visible Passes

Search period start: 29 April 2025 00:00
Search period end: 09 May 2025 00:00
Orbit: 6923 x 35068 km, 20.6° (Epoch: 27 April)

Date Brightness Start Highest point End Pass type
(mag) Time Alt. Az. Time Alt. Az. Time Alt. Az.
29 Apr ? 04:51:16 10° WNW 05:45:12 81° NNE 06:28:25 10° ESE visible
01 May ? 07:34:18 10° WNW 16:43:19 31° E 18:52:00 10° ENE visible
02 May ? 08:49:38 10° W 17:42:35 49° ENE 20:21:48 10° ENE visible
03 May ? 10:04:00 10° W 18:33:57 68° ENE 21:42:40 10° ENE visible
04 May ? 11:18:22 10° W 18:40:29 84° NE 22:59:39 10° ENE visible
05 May ? 12:33:30 10° WSW 17:41:09 84° SW 00:14:49 10° ENE visible
06 May ? 13:50:24 10° WSW 17:20:53 70° WSW 01:29:16 10° E visible
07 May ? 15:10:47 10° WSW 18:02:28 52° WSW 02:43:45 10° E visible
